Weather in Uliastai

Mongolia     47°44′24″N   96°50′46″E
temp.,
°C
wind,
m/s
gust,
m/s
humid.,
%
clouds,
%
prec.,
mm/h
press.,
hPa
HPBL,
m
25 february, thu
thu2523:00−13e33520 0.0 102323
02:00−13e33500 0.0 102324
05:00−13e335030 0.0 102124
08:00−12e335365 0.0 102026
11:00−8e2366100 0.0 101648
14:00−3e2466100 0.0 1009229
17:00−3ese3371100 0.1 100863
20:00−8e2361100 0.1 100825
26 february, fri
fri2623:00−7ese3365100 0.0 100939
02:00−6ene1270100 0.1 101021
05:00−7s1197100 2.1 101223
08:00−10wnw2393100 3.4 101765
11:00−10ssw1665100 0.3 1019720
14:00−9wnw41147100 0.3 10181950
17:00−10ssw4973100 0.1 10191290
20:00−15nw1169100 0.1 102320
27 february, sat
sat2723:00−21ene11690 0.0 102720
02:00−23ne22670 0.0 102820
05:00−24e22650 0.0 103020
08:00−25ene22600 0.0 103120
11:00−20e22650 0.0 103166
14:00−16sw11500 0.0 1028237
17:00−16wnw11730 0.0 102720
20:00−23ene22620 0.0 103220
28 february, sun
sun2823:00−25e22600 0.0 103520
02:00−26e22580 0.0 103720
05:00−26ene22580 0.0 103920
08:00−27ene23590 0.0 104120
11:00−21ene22670 0.0 104065
14:00−16ne12570 0.0 1036228
17:00−16w01710 0.0 103520
20:00−22e22630 0.0 103820
1 march, mon
mon123:00−24e33610 0.0 104020
02:00−24e33530 0.0 104021
05:00−23ene334917 0.0 103823
08:00−22ene33508 0.0 103623
11:00−16e22630 0.0 103268
14:00−10ese12531 0.0 1027227
17:00−10wsw01760 0.0 102521
20:00−15e22670 0.0 102620